INMARSAT 3-F5
1 25153U 98006B   03038.03923034  .00000145  00000-0  10000-3 0  8417
2 25153   0.4526 356.3786 0004512 320.8593 218.6620  1.00276425 18387
HOT BIRD 4
1 25237U 98013A   03013.80550721  .00000107  00000-0  10000-3 0  3250
2 25237   0.0242 116.4838 0007929 193.6371 105.7449  1.00276095 18185
NOAA 15
1 25338U 98030A   03042.08123343  .00000207  00000-0  10835-3 0    17
2 25338  98.5502  64.4343 0010463 344.1802  15.9049 14.24241002246732
RESURS O1-N4
1 25394U 98043A   03042.39804312  .00000156  00000-0  87197-4 0  4450
2 25394  98.6311 120.4584 0002246 117.5887 242.5520 14.23875163238517
TMSAT
1 25396U 98043C   03039.90628136 -.00000043  00000-0  00000+0 0  8210
2 25396  98.6277 117.1987 0003322 147.1878 212.9508 14.23508183238157
TECHSAT 1B
1 25397U 98043D   03035.63506632 -.00000043 +00000-0 -83465-7 0 01356
2 25397 098.6227 111.9131 0001642 150.2515 209.8757 14.22956023237511
ASTRA 2A
1 25462U 98050A   03041.00000000  .00000159  00000-0  00000+0 0  5315
2 25462   0.0385 308.7109 0004824 280.8620 298.3055  1.00272094 16351
EUTELSAT W2
1 25491U 98056A   03039.85113642  .00000113  00000-0  00000+0 0  5747
2 25491   0.0046 169.8842 0008510  54.3751 236.7585  1.00274117 15959
HOT BIRD 5
1 25495U 98057A   03038.05043983  .00000159  00000-0  00000+0 0  4999
2 25495   0.0465 259.5944 0004088  57.9351 230.4572  1.00271278 15906
SEDSAT 1
1 25509U 98061B   03041.74816315  .00000803  00000-0  14675-3 0  7768
2 25509  31.4281 197.3435 0358173 234.6208 122.0497 14.27419189224195
PAN SAT
1 25520U 98064B   03039.80240170  .00002834  00000-0  14248-3 0  6365
2 25520  28.4596 288.9042 0006109 243.0057 116.9936 15.13828821236106
ISS (ZARYA)
1 25544U 98067A   03042.57910299 -.00000009  00000-0  00000+0 0  6762
2 25544  51.6366 291.0687 0012255 196.6927 163.4188 15.58196068241453
ORSTED
1 25635U 99008B   03041.49483399  .00001133  00000-0  29415-3 0  8287
2 25635  96.4497  29.6596 0145707 355.3727   4.6114 14.44822187208776
SUNSAT
1 25636U 99008C   03038.55291413  .00000490  00000-0  13615-3 0  6621
2 25636  96.4518  26.1016 0149921  10.9325 349.5068 14.42941244208223
UOSAT 12
1 25693U 99021A   03042.37006495  .00000526  00000-0  95198-4 0  6951
2 25693  64.5598  32.8192 0019506 315.6413  44.3134 14.76379184205199
FENGYUN 1C
1 25730U 99025A   03042.42390534 -.00000013  00000-0  16138-4 0  7649
2 25730  98.6342  67.0921 0014735  26.6928 333.4999 14.11732917193626
ASTRA 1H
1 25785U 99033A   03041.00000000  .00000129  00000-0  10000-3 0  3719
2 25785   0.0122 319.8851 0002995  65.1991 133.7806  1.00273184 13418
TERRA
1 25994U 99068A   03042.23987262  .00000639  00000-0  15190-3 0  6869
2 25994  98.2008 118.5739 0000858  85.9249 274.2052 14.57123108167604
JAWSAT
1 26061U 00004A   03042.20280412  .00000580  00000-0  21074-3 0  7625
2 26061 100.2089  97.9049 0034821 300.6547  59.1203 14.37815767159473
OPAL
1 26063U 00004C   03042.16695180  .00000162  00000-0  76262-4 0  7181
2 26063 100.2140  95.4043 0037046 308.1830  51.6010 14.35478022159324
ASUSAT
1 26065U 00004E   03041.56636998  .00000187  00000-0  85034-4 0  7306
2 26065 100.2112  94.8406 0037020 310.8914  48.9062 14.35505115159236
GOES 11
1 26352U 00022A   03040.34226223 -.00000026  00000-0  10000-3 0   166
2 26352   0.1169 104.3657 0003610 219.8219 184.8358  1.00264164 10142
EUTELSAT W4
1 26369U 00028A   03041.86777200  .00000165  00000-0  00000+0 0  3514
2 26369   0.0309  18.7813 0003068 301.5196 168.7050  1.00274867  9977
FENGYUN 2B
1 26382U 00032A   03041.94694125 -.00000319  00000-0  00000+0 0  7917
2 26382   0.5780 286.7464 0001621 226.8711  72.1141  1.00280181  9632
EUTELSAT W1
1 26487U 00052A   03041.87511575  .00000078  00000-0  10000-3 0  3523
2 26487   0.0199 250.4398 0004405  25.1047 189.9982  1.00274916  8948
ASTRA 2B
1 26494U 00054A   03041.00000000  .00000159  00000-0  00000+0 0  2540
2 26494   0.0178 354.5658 0005000 302.8402 230.4186  1.00276704  8833
NOAA 16
1 26536U 00055A   03041.99924840  .00000206  00000-0  13710-3 0  2036
2 26536  98.9016 350.3391 0010213 331.4349  28.6288 14.11898953123082
SAUDISAT 1A
1 26545U 00057A   03042.04017984  .00001403  00000-0  20464-3 0  4101
2 26545  64.5589  55.0619 0052613 239.9540 119.6353 14.78960785128101
UNISAT
1 26547U 00057C   03040.13808769  .00002057  00000-0  28408-3 0  4281
2 26547  64.5575  63.1785 0059876 242.6618 116.8385 14.79702735127795
TIUNGSAT 1
1 26548U 00057D   03041.12912647  .00001760  00000-0  23982-3 0  4139
2 26548  64.5582  50.8446 0046004 239.1194 120.5369 14.81239637128110
SAUDISAT 1B
1 26549U 00057E   03042.40918573  .00001231  00000-0  18577-3 0  6898
2 26549  64.5526  58.0050 0057178 239.8864 119.6565 14.77899243128088
AMSAT OSCAR 40
1 26609U 00072B   03042.26455231 -.00000067  00000-0  10000-3 0  3104
2 26609   8.0482  65.4048 7940113 142.6388 315.2305  1.25596326 10493
GOES 12
1 26871U 01031A   03038.59289693 -.00000140  00000-0  10000-3 0  8106
2 26871   0.3528 276.6744 0003201 358.7723 337.2121  1.00363477  5725
PCSAT
1 26931U 01043C   03041.54699581  .00000213  00000-0  11627-3 0  3983
2 26931  67.0478 276.2669 0004973 262.9850  97.0684 14.29111201 71204
SAPPHIRE
1 26932U 01043D   03041.87592503  .00000098  00000-0  71082-4 0  3934
2 26932  67.0555 275.1270 0005191 240.1135 119.9449 14.29291261 71279
ENVISAT
1 27386U 02009A   03042.34944292  .00000213  00000-0  95243-4 0  9299
2 27386  98.5459 111.0020 0000984 101.8827 258.2466 14.32256141 49714
IDEFIX/ARIANE 42P
1 27422U 02021B   03042.24513088  .00000261  00000-0  12328-3 0  2308
2 27422  98.6954 121.4806 0012823 167.7988 192.3505 14.27965764 40419
FENGYUN 1D
1 27431U 02024B   03042.21032960 -.00000099  00000-0 -32156-4 0  2126
2 27431  98.7707  91.3903 0015990 143.0483 217.1789 14.09177033 38336
NOAA 17
1 27453U 02032A   03042.04360079  .00000278  00000-0  14234-3 0  2993
2 27453  98.7597 113.2949 0012295  22.2290 337.9418 14.23288604 32898
HOT BIRD 6
1 27499U 02038A   03013.80550721  .00000106  00000-0  10000-3 0   665
2 27499   0.0928  32.8693 0008090 290.3889  92.5421  1.00271722  1476
RUBIN 2
1 27605U 02058A   03041.96767639 -.00001617  00000-0 -23656-3 0   539
2 27605  64.5539 220.3216 0034677 116.6841 243.7819 14.71337885  7697
